Погода в Почаеве

Россия / Белгородская область     50°38′43″N   35°32′49″E
темп.,
°C
ветер,
м/с
пор.,
м/с
влажн.,
%
обл.,
%
осадки,
мм/ч
давл.,
гПа
погр.,
м
7 августа, вс
вс700:00+20всв47560 0.0 101799
03:00+18в36550 0.0 101687
06:00+18в35543 0.0 101770
09:00+24в46452 0.0 1017276
12:00+29в44300 0.0 10171392
15:00+30всв32264 0.0 10162683
18:00+28ссв2438100 0.0 1015101
21:00+23с33408 0.0 101629
8 августа, пн
пн800:00+21ссв345027 0.0 101648
03:00+19св2256100 0.0 101721
06:00+19св2256100 0.0 101714
09:00+23ссв3452100 0.0 1018224
12:00+27св234298 0.0 1018514
15:00+30с213322 0.0 10181285
18:00+28ссз444454 0.0 1017269
21:00+22ссв466154 0.0 101888
9 августа, вт
вт900:00+20ссв346574 0.0 101967
03:00+19ссв356684 0.0 101982
06:00+18ссв34726 0.0 101958
09:00+24ссв44576 0.0 1018342
12:00+29ссв324351 0.0 1018900
15:00+30с433899 0.0 10171807
18:00+27с565352 0.0 1017603
21:00+22с5107468 0.0 1017263
10 августа, ср
ср1000:00+18ссв5119186 0.0 1018269
03:00+18с5109048 0.0 1017283
06:00+17ссв6119314 0.0 1017344
09:00+21ссв7874100 0.0 1018610
12:00+25ссв665942 0.0 10171009
15:00+25с7755100 0.0 10171231
18:00+23ссв71059100 0.0 1017792
21:00+19ссв71370100 0.0 1018481
11 августа, чт
чт1100:00+17ссв71472100 0.0 1018413
03:00+17св71563100 0.0 1018430
06:00+17ссв7147081 0.0 1019471
09:00+20св812618 0.0 1019586
12:00+25св894559 0.0 10191009
15:00+26св7842100 0.0 10191215
18:00+25св684733 0.0 10191102
21:00+20св513555 0.0 1020347